Time,TemperatureF,DewpointF,PressureIn,WindDirection,WindDirectionDegrees,WindSpeedMPH,WindSpeedGustMPH,Humidity,HourlyPrecipIn,Conditions,Clouds,dailyrainin,SolarRadiationWatts/m^2,SoftwareType,DateUTC
2013-08-06 00:02:00,72.0,60.0,-100.00,SE,143,3.0,5.0,67,0.00,,,0.00,118.000000,,2013-08-06 00:02:00,
2013-08-06 00:11:00,70.0,61.0,-100.00,SSW,193,2.0,4.0,74,0.00,,,0.00,41.000000,,2013-08-06 00:11:00,
2013-08-06 00:37:00,70.0,61.0,-100.00,SSW,193,2.0,4.0,74,0.00,,,0.00,41.000000,,2013-08-06 00:37:00,
2013-08-06 00:47:00,70.0,61.0,-100.00,SSW,193,2.0,4.0,74,0.00,,,0.00,41.000000,,2013-08-06 00:47:00,
2013-08-06 00:57:00,70.0,61.0,-100.00,SSW,193,2.0,4.0,74,0.00,,,0.00,41.000000,,2013-08-06 00:57:00,
2013-08-06 01:10:00,70.0,61.0,-100.00,SSW,193,2.0,4.0,74,0.00,,,0.00,41.000000,,2013-08-06 01:10:00,
2013-08-06 01:11:00,67.0,60.0,-100.00,SE,133,0.0,5.0,77,0.00,,,0.00,5.000000,,2013-08-06 01:11:00,
2013-08-06 01:43:00,67.0,60.0,-100.00,SE,133,0.0,5.0,77,0.00,,,0.00,5.000000,,2013-08-06 01:43:00,
2013-08-06 01:53:00,67.0,60.0,-100.00,SE,133,0.0,5.0,77,0.00,,,0.00,5.000000,,2013-08-06 01:53:00,
2013-08-06 02:02:00,67.0,60.0,-100.00,SE,133,0.0,5.0,77,0.00,,,0.00,5.000000,,2013-08-06 02:02:00,
2013-08-06 02:09:00,67.0,60.0,-100.00,SE,133,0.0,5.0,77,0.00,,,0.00,5.000000,,2013-08-06 02:09:00,
2013-08-06 02:11:00,63.0,60.0,-100.00,NW,326,1.0,2.0,90,0.00,,,0.00,0.000000,,2013-08-06 02:11:00,
2013-08-06 02:50:00,63.0,60.0,-100.00,NW,326,1.0,2.0,90,0.00,,,0.00,0.000000,,2013-08-06 02:50:00,
2013-08-06 03:02:00,63.0,60.0,-100.00,NW,326,1.0,2.0,90,0.00,,,0.00,0.000000,,2013-08-06 03:02:00,
2013-08-06 03:11:00,62.0,61.0,-100.00,North,357,0.0,0.0,95,0.00,,,0.00,0.000000,,2013-08-06 03:11:00,
2013-08-06 03:45:00,62.0,61.0,-100.00,North,357,0.0,0.0,95,0.00,,,0.00,0.000000,,2013-08-06 03:45:00,
2013-08-06 03:52:00,62.0,61.0,-100.00,North,357,0.0,0.0,95,0.00,,,0.00,0.000000,,2013-08-06 03:52:00,
2013-08-06 04:02:00,62.0,61.0,-100.00,North,357,0.0,0.0,95,0.00,,,0.00,0.000000,,2013-08-06 04:02:00,
2013-08-06 04:11:00,61.0,60.0,-100.00,SE,124,0.0,0.0,96,0.00,,,0.00,0.000000,,2013-08-06 04:11:00,
2013-08-06 04:33:00,61.0,60.0,-100.00,SE,124,0.0,0.0,96,0.00,,,0.00,0.000000,,2013-08-06 04:33:00,
2013-08-06 04:44:00,61.0,60.0,-100.00,SE,124,0.0,0.0,96,0.00,,,0.00,0.000000,,2013-08-06 04:44:00,
2013-08-06 04:54:00,61.0,60.0,-100.00,SE,124,0.0,0.0,96,0.00,,,0.00,0.000000,,2013-08-06 04:54:00,
2013-08-06 05:02:00,61.0,60.0,-100.00,SE,124,0.0,0.0,96,0.00,,,0.00,0.000000,,2013-08-06 05:02:00,
2013-08-06 05:11:00,61.0,60.0,-100.00,NW,307,0.0,0.0,97,0.00,,,0.00,0.000000,,2013-08-06 05:11:00,
2013-08-06 05:43:00,61.0,60.0,-100.00,NW,307,0.0,0.0,97,0.00,,,0.00,0.000000,,2013-08-06 05:43:00,
2013-08-06 05:53:00,61.0,60.0,-100.00,NW,307,0.0,0.0,97,0.00,,,0.00,0.000000,,2013-08-06 05:53:00,
2013-08-06 06:02:00,61.0,60.0,-100.00,NW,307,0.0,0.0,97,0.00,,,0.00,0.000000,,2013-08-06 06:02:00,
2013-08-06 06:11:00,62.0,61.0,-100.00,South,187,0.0,0.0,96,0.00,,,0.00,0.000000,,2013-08-06 06:11:00,
2013-08-06 06:43:00,62.0,61.0,-100.00,South,187,0.0,0.0,96,0.00,,,0.00,0.000000,,2013-08-06 06:43:00,
2013-08-06 06:52:00,62.0,61.0,-100.00,South,187,0.0,0.0,96,0.00,,,0.00,0.000000,,2013-08-06 06:52:00,
2013-08-06 07:01:00,62.0,61.0,-100.00,South,187,0.0,0.0,96,0.00,,,0.00,0.000000,,2013-08-06 07:01:00,
2013-08-06 07:11:00,61.0,60.0,-100.00,West,279,0.0,2.0,96,0.00,,,0.00,0.000000,,2013-08-06 07:11:00,
2013-08-06 07:32:00,61.0,60.0,-100.00,West,279,0.0,2.0,96,0.00,,,0.00,0.000000,,2013-08-06 07:32:00,
2013-08-06 07:44:00,61.0,60.0,-100.00,West,279,0.0,2.0,96,0.00,,,0.00,0.000000,,2013-08-06 07:44:00,
2013-08-06 07:53:00,61.0,60.0,-100.00,West,279,0.0,2.0,96,0.00,,,0.00,0.000000,,2013-08-06 07:53:00,
2013-08-06 08:02:00,61.0,60.0,-100.00,West,279,0.0,2.0,96,0.00,,,0.00,0.000000,,2013-08-06 08:02:00,
2013-08-06 08:11:00,60.0,59.0,-100.00,WNW,289,0.0,0.0,97,0.00,,,0.00,0.000000,,2013-08-06 08:11:00,
2013-08-06 08:33:00,60.0,59.0,-100.00,WNW,289,0.0,0.0,97,0.00,,,0.00,0.000000,,2013-08-06 08:33:00,
2013-08-06 08:43:00,60.0,59.0,-100.00,WNW,289,0.0,0.0,97,0.00,,,0.00,0.000000,,2013-08-06 08:43:00,
2013-08-06 08:52:00,60.0,59.0,-100.00,WNW,289,0.0,0.0,97,0.00,,,0.00,0.000000,,2013-08-06 08:52:00,
2013-08-06 09:01:00,60.0,59.0,-100.00,WNW,289,0.0,0.0,97,0.00,,,0.00,0.000000,,2013-08-06 09:01:00,
2013-08-06 09:11:00,61.0,60.0,-100.00,West,260,0.0,0.0,98,0.00,,,0.00,0.000000,,2013-08-06 09:11:00,
2013-08-06 09:43:00,61.0,60.0,-100.00,West,260,0.0,0.0,98,0.00,,,0.00,0.000000,,2013-08-06 09:43:00,
2013-08-06 09:52:00,61.0,60.0,-100.00,West,260,0.0,0.0,98,0.00,,,0.00,0.000000,,2013-08-06 09:52:00,
2013-08-06 10:01:00,61.0,60.0,-100.00,West,260,0.0,0.0,98,0.00,,,0.00,0.000000,,2013-08-06 10:01:00,
2013-08-06 10:11:00,61.0,60.0,-100.00,WNW,299,0.0,0.0,98,0.00,,,0.00,0.000000,,2013-08-06 10:11:00,
2013-08-06 10:32:00,61.0,60.0,-100.00,WNW,299,0.0,0.0,98,0.00,,,0.00,0.000000,,2013-08-06 10:32:00,
2013-08-06 10:43:00,61.0,60.0,-100.00,WNW,299,0.0,0.0,98,0.00,,,0.00,0.000000,,2013-08-06 10:43:00,
2013-08-06 10:53:00,61.0,60.0,-100.00,WNW,299,0.0,0.0,98,0.00,,,0.00,0.000000,,2013-08-06 10:53:00,
2013-08-06 11:02:00,61.0,60.0,-100.00,WNW,299,0.0,0.0,98,0.00,,,0.00,0.000000,,2013-08-06 11:02:00,
2013-08-06 11:11:00,62.0,61.0,-100.00,WNW,298,0.0,3.0,98,0.00,,,0.00,4.000000,,2013-08-06 11:11:00,
2013-08-06 11:32:00,62.0,61.0,-100.00,WNW,298,0.0,3.0,98,0.00,,,0.00,4.000000,,2013-08-06 11:32:00,
2013-08-06 11:43:00,62.0,61.0,-100.00,WNW,298,0.0,3.0,98,0.00,,,0.00,4.000000,,2013-08-06 11:43:00,
2013-08-06 11:53:00,62.0,61.0,-100.00,WNW,298,0.0,3.0,98,0.00,,,0.00,4.000000,,2013-08-06 11:53:00,
2013-08-06 12:02:00,62.0,61.0,-100.00,WNW,298,0.0,3.0,98,0.00,,,0.00,4.000000,,2013-08-06 12:02:00,
2013-08-06 12:11:00,64.0,63.0,-100.00,NNE,33,0.0,0.0,97,0.00,,,0.00,49.000000,,2013-08-06 12:11:00,
2013-08-06 12:43:00,64.0,63.0,-100.00,NNE,33,0.0,0.0,97,0.00,,,0.00,49.000000,,2013-08-06 12:43:00,
2013-08-06 12:52:00,64.0,63.0,-100.00,NNE,33,0.0,0.0,97,0.00,,,0.00,49.000000,,2013-08-06 12:52:00,
2013-08-06 13:02:00,64.0,63.0,-100.00,NNE,33,0.0,0.0,97,0.00,,,0.00,49.000000,,2013-08-06 13:02:00,
2013-08-06 13:11:00,69.0,64.0,-100.00,NW,325,0.0,0.0,83,0.00,,,0.00,203.000000,,2013-08-06 13:11:00,
2013-08-06 13:42:00,69.0,64.0,-100.00,NW,325,0.0,0.0,83,0.00,,,0.00,203.000000,,2013-08-06 13:42:00,
2013-08-06 13:53:00,69.0,64.0,-100.00,NW,325,0.0,0.0,83,0.00,,,0.00,203.000000,,2013-08-06 13:53:00,
2013-08-06 14:01:00,69.0,64.0,-100.00,NW,325,0.0,0.0,83,0.00,,,0.00,203.000000,,2013-08-06 14:01:00,
2013-08-06 14:11:00,70.0,63.0,-100.00,West,269,0.0,0.0,78,0.00,,,0.00,194.000000,,2013-08-06 14:11:00,
2013-08-06 14:42:00,70.0,63.0,-100.00,West,269,0.0,0.0,78,0.00,,,0.00,194.000000,,2013-08-06 14:42:00,
2013-08-06 14:53:00,70.0,63.0,-100.00,West,269,0.0,0.0,78,0.00,,,0.00,194.000000,,2013-08-06 14:53:00,
2013-08-06 15:02:00,70.0,63.0,-100.00,West,269,0.0,0.0,78,0.00,,,0.00,194.000000,,2013-08-06 15:02:00,
2013-08-06 15:11:00,73.0,65.0,-100.00,West,268,0.0,0.0,75,0.00,,,0.00,286.000000,,2013-08-06 15:11:00,
2013-08-06 15:44:00,73.0,65.0,-100.00,West,268,0.0,0.0,75,0.00,,,0.00,286.000000,,2013-08-06 15:44:00,
2013-08-06 15:52:00,73.0,65.0,-100.00,West,268,0.0,0.0,75,0.00,,,0.00,286.000000,,2013-08-06 15:52:00,
2013-08-06 16:02:00,73.0,65.0,-100.00,West,268,0.0,0.0,75,0.00,,,0.00,286.000000,,2013-08-06 16:02:00,
2013-08-06 16:11:00,78.0,64.0,-100.00,NE,43,3.0,6.0,62,0.00,,,0.00,709.000000,,2013-08-06 16:11:00,
2013-08-06 16:43:00,78.0,64.0,-100.00,NE,43,3.0,6.0,62,0.00,,,0.00,709.000000,,2013-08-06 16:43:00,
2013-08-06 16:52:00,78.0,64.0,-100.00,NE,43,3.0,6.0,62,0.00,,,0.00,709.000000,,2013-08-06 16:52:00,
2013-08-06 17:02:00,78.0,64.0,-100.00,NE,43,3.0,6.0,62,0.00,,,0.00,709.000000,,2013-08-06 17:02:00,
2013-08-06 17:11:00,80.0,63.0,-100.00,SE,129,3.0,6.0,57,0.00,,,0.00,826.000000,,2013-08-06 17:11:00,
2013-08-06 17:44:00,80.0,63.0,-100.00,SE,129,3.0,6.0,57,0.00,,,0.00,826.000000,,2013-08-06 17:44:00,
2013-08-06 17:52:00,80.0,63.0,-100.00,SE,129,3.0,6.0,57,0.00,,,0.00,826.000000,,2013-08-06 17:52:00,
2013-08-06 18:01:00,80.0,63.0,-100.00,SE,129,3.0,6.0,57,0.00,,,0.00,826.000000,,2013-08-06 18:01:00,
2013-08-06 18:11:00,77.0,62.0,-100.00,West,280,4.0,7.0,60,0.00,,,0.00,750.000000,,2013-08-06 18:11:00,
2013-08-06 18:44:00,77.0,62.0,-100.00,West,280,4.0,7.0,60,0.00,,,0.00,750.000000,,2013-08-06 18:44:00,
2013-08-06 18:52:00,77.0,62.0,-100.00,West,280,4.0,7.0,60,0.00,,,0.00,750.000000,,2013-08-06 18:52:00,
2013-08-06 19:01:00,77.0,62.0,-100.00,West,280,4.0,7.0,60,0.00,,,0.00,750.000000,,2013-08-06 19:01:00,
2013-08-06 19:11:00,78.0,64.0,-100.00,WNW,287,3.0,9.0,62,0.00,,,0.00,570.000000,,2013-08-06 19:11:00,
2013-08-06 19:42:00,78.0,64.0,-100.00,WNW,287,3.0,9.0,62,0.00,,,0.00,570.000000,,2013-08-06 19:42:00,
2013-08-06 19:52:00,78.0,64.0,-100.00,WNW,287,3.0,9.0,62,0.00,,,0.00,570.000000,,2013-08-06 19:52:00,
2013-08-06 20:01:00,78.0,64.0,-100.00,WNW,287,3.0,9.0,62,0.00,,,0.00,570.000000,,2013-08-06 20:01:00,
2013-08-06 20:11:00,77.0,64.0,-100.00,NNW,329,3.0,6.0,65,0.00,,,0.00,395.000000,,2013-08-06 20:11:00,
2013-08-06 20:44:00,77.0,64.0,-100.00,NNW,329,3.0,6.0,65,0.00,,,0.00,395.000000,,2013-08-06 20:44:00,
2013-08-06 20:52:00,77.0,64.0,-100.00,NNW,329,3.0,6.0,65,0.00,,,0.00,395.000000,,2013-08-06 20:52:00,
2013-08-06 21:01:00,77.0,64.0,-100.00,NNW,329,3.0,6.0,65,0.00,,,0.00,395.000000,,2013-08-06 21:01:00,
2013-08-06 21:11:00,78.0,66.0,-100.00,NW,304,3.0,6.0,67,0.00,,,0.00,402.000000,,2013-08-06 21:11:00,
2013-08-06 21:43:00,78.0,66.0,-100.00,NW,304,3.0,6.0,67,0.00,,,0.00,402.000000,,2013-08-06 21:43:00,
2013-08-06 21:52:00,78.0,66.0,-100.00,NW,304,3.0,6.0,67,0.00,,,0.00,402.000000,,2013-08-06 21:52:00,
2013-08-06 22:01:00,78.0,66.0,-100.00,NW,304,3.0,6.0,67,0.00,,,0.00,402.000000,,2013-08-06 22:01:00,
2013-08-06 22:11:00,76.0,66.0,-100.00,WNW,294,2.0,6.0,72,0.00,,,0.00,235.000000,,2013-08-06 22:11:00,
2013-08-06 22:32:00,76.0,66.0,-100.00,WNW,294,2.0,6.0,72,0.00,,,0.00,235.000000,,2013-08-06 22:32:00,
2013-08-06 22:43:00,76.0,66.0,-100.00,WNW,294,2.0,6.0,72,0.00,,,0.00,235.000000,,2013-08-06 22:43:00,
2013-08-06 22:53:00,76.0,66.0,-100.00,WNW,294,2.0,6.0,72,0.00,,,0.00,235.000000,,2013-08-06 22:53:00,
2013-08-06 23:02:00,76.0,66.0,-100.00,WNW,294,2.0,6.0,72,0.00,,,0.00,235.000000,,2013-08-06 23:02:00,
2013-08-06 23:11:00,75.0,66.0,-100.00,WNW,292,1.0,4.0,73,0.00,,,0.00,165.000000,,2013-08-06 23:11:00,
2013-08-06 23:43:00,75.0,66.0,-100.00,WNW,292,1.0,4.0,73,0.00,,,0.00,165.000000,,2013-08-06 23:43:00,
2013-08-06 23:52:00,75.0,66.0,-100.00,WNW,292,1.0,4.0,73,0.00,,,0.00,165.000000,,2013-08-06 23:52:00,